Regional Weather Roundup
Issued by NWS

Home | Current Version | Previous Version | Text Only | Print | Product List | Glossary Off
Versions: 1 2 3 4 5 6 7 8 9 10 11 12 13 14 15 16 17 18 19 20 21 22 23 24 25 26 27 28 29 30 31 32 33 34 35 36 37 38 39 40 41 42 43 44 45 46 47 48 49 50

000
ASUS43 KOAX 282102
RWRNE

WEATHER ROUNDUP FOR NEBRASKA
NATIONAL WEATHER SERVICE OMAHA NE
300 PM CST WED JAN 28 2015

NOTES: SATELLITE DATA IS BEING USED TO AUGMENT CLOUD COVER ABOVE
       12000 FEET.
       "FAIR" INDICATES FEW OR NO CLOUDS BELOW 12,000 FEET WITH NO
       SIGNIFICANT WEATHER AND/OR OBSTRUCTIONS TO VISIBILITY.

  * THESE STATIONS DO NOT REPORT WEATHER SUCH AS RAIN...SNOW OR FOG.

NEZ001>004-019>022-054>056-282200-
NEBRASKA PANHANDLE

CITY           SKY/WX    TMP DP  RH WIND       PRES   REMARKS
SCOTTSBLUFF      N/A     49  38  65 NW22G32   30.03R
ALLIANCE       PTSUNNY   56  30  37 NW29G39   29.96R
CHADRON        CLOUDY    52  36  54 NW22G32   29.99R
SIDNEY         MOSUNNY   56  33  42 NW32G45   30.00R
$$

NEZ057>060-069>072-079>082-282200-
SOUTHWEST NEBRASKA

CITY           SKY/WX    TMP DP  RH WIND       PRES   REMARKS
NORTH PLATTE   SUNNY     65  29  25 NW26G35   29.83R
IMPERIAL       SUNNY     63  31  30 NW32G41   29.89R
MCCOOK         SUNNY     69  31  24 NW25G39   29.82R
$$

NEZ005>010-023>029-035>040-094-282200-
NORTH CENTRAL NEBRASKA

CITY           SKY/WX    TMP DP  RH WIND       PRES   REMARKS
VALENTINE      PTSUNNY   58  27  30 NW24G36   29.81R
BROKEN BOW     SUNNY     66  34  30 NW23G37   29.75R
ORD            SUNNY     66  32  28 NW24G31   29.70R
$$

NEZ041-046>049-061>064-073>077-083>087-282200-
SOUTH CENTRAL NEBRASKA

CITY           SKY/WX    TMP DP  RH WIND       PRES   REMARKS
GRAND ISLAND   SUNNY     67  34  29 NW18      29.70S
AURORA         MOSUNNY   66  33  30 NW15      29.69S
HASTINGS         N/A     69  30  23 NW20      29.71S
KEARNEY *      SUNNY     70  34  26 NW21G26   29.73R
$$

NEZ011>018-030>034-042>045-282200-
NORTHEAST NEBRASKA

CITY           SKY/WX    TMP DP  RH WIND       PRES   REMARKS
NORFOLK        MOSUNNY   63  36  36 NW13      29.65S
COLUMBUS *     MOSUNNY   59  36  41 W8        29.68F
TEKAMAH        PTSUNNY   53  36  52 S8        29.67R
$$

NEZ050>053-065>068-078-088>093-282200-
SOUTHEAST NEBRASKA

CITY           SKY/WX    TMP DP  RH WIND       PRES   REMARKS
LINCOLN        PTSUNNY   61  36  39 SW9       29.68F
OMAHA EPPLEY   PTSUNNY   55  36  48 S9        29.65F
FALLS CITY     PTSUNNY   71  38  29 SW15      29.66F
$$

NEZ044-045-051>053-067-282200-
OMAHA AREA

CITY           SKY/WX    TMP DP  RH WIND       PRES   REMARKS
OMAHA EPPLEY   PTSUNNY   55  36  48 S9        29.65F
OFFUTT AFB     PTSUNNY   58  36  43 SE10      29.65F
$$


USA.gov is the U.S. government's official web portal to all federal, state and local government web resources and services.